Location: Barnston
(51.8500°N, 0.4000°E)
Time: 04:10:05
(UTC+00:00)

Meteor 1-26 Rocket - Pass Details

Date: 26 September 2023
Orbit: 809 x 925 km, 81.3° (Epoch: 29 November)

Event Time Altitude Azimuth Distance (km) Brightness Sun altitude
Exits shadow 04:01:55 - 196° (SSW) 2,646 6.4 -17.2°
Reaches altitude 10° 04:02:03 10° 196° (SSW) 2,593 6.4 -17.2°
Maximum altitude 04:07:59 79° 283° (WNW) 917 4.2 -16.3°
Drops below altitude 10° 04:13:48 10° 11° (N) 2,540 7.1 -15.5°
Sets 04:16:13 0° 13° (NNE) 3,464 7.8 -15.1°
